Location: Diebersbach
(48.5163°N, 8.0558°E)
Time: 18:49:07
(UTC+00:00)

Cosmos 1825 - Pass Details

Date: 05 November 2021
Orbit: 501 x 504 km, 82.5° (Epoch: 30 November)

Event Time Altitude Azimuth Distance (km) Brightness Sun altitude
Rises 17:17:28 0° 347° (NNW) 2,612 5.8 -12.8°
Reaches altitude 10° 17:19:36 10° 343° (NNW) 1,723 4.9 -13.2°
Maximum altitude 17:23:19 59° 264° (W) 585 2.8 -13.8°
Drops below altitude 10° 17:27:01 10° 185° (S) 1,710 5.0 -14.4°
Sets 17:29:08 0° 181° (S) 2,590 5.9 -14.7°
